Flag for El Salvador Weather past 2 weeks in Santa Ana, El Salvador

Now
81 °F

Passing clouds.


Feels Like: 85 °F
Forecast: 67 / 96 °F
Wind: 7 mph from South

Location: San Salvador / Ilopango


UV Index: 10 (Very high)

Visibility: N/A


Pressure: 29.95 "Hg

Humidity: 74%

Dew point: 72 °F

Location of Santa AnaLocation

Historic Weather in Santa Ana

°F

Santa Ana temperature yesterday

Maximum temperature yesterday: 91 °F (at 2:50 PM)
Minimum temperature yesterday: 68 °F (at 6:50 AM)
Average temperature yesterday: 80 °F

Past Weeks' High & Low Weather Summary

 TemperatureHumidityPressure
High95 °F (Apr 8, 12:50 PM)100% (Apr 17, 7:50 AM)30.09 "Hg (Apr 17, 7:50 AM)
Low64 °F (Apr 15, 5:50 AM)36% (Apr 9, 1:50 PM)29.86 "Hg (Apr 14, 5:50 PM)
Average80 °F69%29.96 "Hg
* Reported Apr 5 4:50 PM — Apr 20 4:50 PM, Santa Ana, Weather by CustomWeather, © 2014

Note: Actual official high and low records may vary slightly from our data, if they occured in-between our weather recording intervals... More about our weather records

Advertising

Historic Weather Conditions — Data for Previous 24 hours

 ConditionsComfort  
Time TempWeatherWind HumidityBarometerVisibility
4:50 PM
Apr 20
84 °FPassing clouds.12 mph70%29.92 "HgN/A
3:50 PM86 °FScattered clouds.15 mph66%29.92 "HgN/A
2:50 PM91 °FSunny.7 mph56%29.95 "Hg10 mi
1:50 PM91 °FSunny.3 mph49%29.98 "Hg10 mi
12:50 PM91 °FSunny.9 mph49%30.01 "Hg10 mi
11:50 AM90 °FSunny.12 mph55%30.04 "Hg10 mi
10:50 AM88 °FSunny.13 mph55%30.04 "Hg10 mi
9:50 AM84 °FSunny.7 mph66%30.07 "Hg10 mi
8:50 AM82 °FSunny.5 mph66%30.04 "Hg10 mi
7:50 AM77 °FSunny.8 mph74%30.04 "Hg10 mi
6:50 AM72 °FSunny.9 mph88%30.01 "Hg10 mi
5:50 AM70 °FSunny.7 mph83%30.01 "Hg10 mi
11:50 PM
Apr 19
75 °FPassing clouds.6 mph74%29.98 "HgN/A
10:50 PM77 °FPassing clouds.3 mph74%29.98 "HgN/A
9:50 PM77 °FPassing clouds.7 mph69%29.98 "HgN/A
8:50 PM77 °FPassing clouds.2 mph74%29.95 "HgN/A
7:50 PM77 °FPassing clouds.2 mph74%29.95 "HgN/A
6:50 PM77 °FPassing clouds.2 mph83%29.95 "HgN/A
Weather by CustomWeather, © 2014

See weather overview